Weather History for KLHM - October, 2012

Change the Weather History Date:

Friday, October 5, 2012

  Actual Average (KAUN) Record (KAUN)
Temperature  
Mean Temperature 66 °F -  
Max Temperature 78 °F 80 °F 98 °F (1980)
Min Temperature 55 °F 54 °F 43 °F (1954)
Cooling Degree Days 2    
Growing Degree Days 16 (Base 50)    
Moisture  
Dew Point 49 °F    
Average Humidity 59    
Maximum Humidity 82    
Minimum Humidity 30    
Precipitation  
Precipitation 0.00 in - - ()
Sea Level Pressure  
Sea Level Pressure 30.06 in    
Wind  
Wind Speed 11 mph (SSE)    
Max Wind Speed 16 mph    
Max Gust Speed 17 mph    
Visibility 10 miles    
Events      
Averages and records for this station are not official NWS values.
T = Trace of Precipitation, MM = Missing Value Source: NWS Daily Summary

Daily Weather History Graph

Daily Weather History Graph

Search for Another Location

Airport or City:

Trip Planner

Search our weather history database for the weather conditions in past years. The results will help you decide how hot, cold, wet, or windy it might be!

Date:

Astronomy

Oct. 05, 2012 Rise Set
Actual Time 7:05 AM PDT 6:40 PM PDT
Civil Twilight 6:39 AM PDT 7:07 PM PDT
Nautical Twilight 6:08 AM PDT 7:38 PM PDT
Astronomical Twilight 5:37 AM PDT 8:09 PM PDT
Moon 10:11 PM PDT (10/5) 12:15 PM PDT (10/5)
Length of Visible Light 12h 28m
Length of Day
11h 35m
Waning Gibbous, 73% of the Moon is Illuminated
Oct 5
Waning Gibbous
Oct 8
Last Quarter
Oct 15
New
Oct 21
First Quarter
Oct 29
Full

Hourly Weather History & Observations

Time (PDT) Temp. Dew Point Humidity Pressure Visibility Wind Dir Wind Speed Gust Speed Precip Events Conditions
12:15 AM 60.8 °F 50.0 °F 68% 30.06 in 10.0 mi SE 12.7 mph 16.1 mph N/A   Clear
12:35 AM 59.0 °F 50.0 °F 72% 30.06 in 10.0 mi SSE 11.5 mph - N/A   Clear
1:15 AM 59.0 °F 50.0 °F 72% 30.07 in 10.0 mi SE 12.7 mph - N/A   Clear
1:35 AM 59.0 °F 50.0 °F 72% 30.06 in 10.0 mi SE 9.2 mph - N/A   Clear
1:55 AM 59.0 °F 50.0 °F 72% 30.06 in 10.0 mi SE 12.7 mph - N/A   Clear
2:15 AM 59.0 °F 50.0 °F 72% 30.07 in 10.0 mi SSE 8.1 mph - N/A   Clear
2:35 AM 59.0 °F 50.0 °F 72% 30.07 in 10.0 mi SE 13.8 mph - N/A   Clear
2:55 AM 59.0 °F 50.0 °F 72% 30.07 in 10.0 mi SE 12.7 mph 17.3 mph N/A   Clear
3:15 AM 59.0 °F 50.0 °F 72% 30.07 in 10.0 mi SE 12.7 mph - N/A   Clear
3:35 AM 59.0 °F 50.0 °F 72% 30.07 in 10.0 mi SE 12.7 mph - N/A   Clear
3:55 AM 59.0 °F 50.0 °F 72% 30.08 in 10.0 mi SE 12.7 mph - N/A   Clear
4:15 AM 59.0 °F 50.0 °F 72% 30.07 in 10.0 mi SE 10.4 mph 17.3 mph N/A   Clear
4:35 AM 59.0 °F 50.0 °F 72% 30.07 in 10.0 mi SE 11.5 mph - N/A   Clear
4:55 AM 57.2 °F 50.0 °F 77% 30.08 in 10.0 mi SE 11.5 mph - N/A   Clear
5:15 AM 57.2 °F 50.0 °F 77% 30.08 in 10.0 mi SE 10.4 mph - N/A   Clear
5:35 AM 57.2 °F 50.0 °F 77% 30.08 in 10.0 mi SSE 10.4 mph - N/A   Clear
5:55 AM 57.2 °F 50.0 °F 77% 30.08 in 10.0 mi SSE 9.2 mph - N/A   Clear
6:15 AM 55.4 °F 50.0 °F 82% 30.08 in 10.0 mi SSE 13.8 mph - N/A   Clear
6:35 AM 55.4 °F 50.0 °F 82% 30.09 in 10.0 mi SSE 12.7 mph - N/A   Clear
6:55 AM 55.4 °F 50.0 °F 82% 30.09 in 10.0 mi SSE 11.5 mph - N/A   Clear
7:35 AM 57.2 °F 50.0 °F 77% 30.10 in 10.0 mi SE 11.5 mph - N/A   Clear
8:15 AM 59.0 °F 50.0 °F 72% 30.11 in 10.0 mi SE 15.0 mph - N/A   Clear
8:35 AM 59.0 °F 51.8 °F 77% 30.11 in 10.0 mi SE 10.4 mph 17.3 mph N/A   Clear
8:55 AM 59.0 °F 51.8 °F 77% 30.11 in 10.0 mi SSE 16.1 mph - N/A   Clear
9:15 AM 59.0 °F 51.8 °F 77% 30.11 in 10.0 mi SE 11.5 mph - N/A   Clear
9:35 AM 60.8 °F 51.8 °F 72% 30.12 in 10.0 mi SSE 13.8 mph - N/A   Clear
9:55 AM 60.8 °F 51.8 °F 72% 30.11 in 10.0 mi SE 13.8 mph - N/A   Clear
10:15 AM 62.6 °F 51.8 °F 68% 30.12 in 10.0 mi SE 13.8 mph - N/A   Clear
10:35 AM 62.6 °F 51.8 °F 68% 30.11 in 10.0 mi SE 13.8 mph - N/A   Clear
10:55 AM 64.4 °F 51.8 °F 64% 30.11 in 10.0 mi SSE 12.7 mph - N/A   Clear
11:15 AM 66.2 °F 51.8 °F 60% 30.11 in 10.0 mi SSE 10.4 mph - N/A   Clear
11:35 AM 68.0 °F 51.8 °F 56% 30.11 in 10.0 mi SSE 10.4 mph - N/A   Clear
11:55 AM 69.8 °F 50.0 °F 49% 30.10 in 10.0 mi SSE 10.4 mph - N/A   Clear
12:15 PM 71.6 °F 50.0 °F 46% 30.10 in 10.0 mi South 9.2 mph - N/A   Clear
12:35 PM 71.6 °F 51.8 °F 50% 30.09 in 10.0 mi South 8.1 mph - N/A   Clear
12:55 PM 73.4 °F 50.0 °F 44% 30.09 in 10.0 mi South 6.9 mph 16.1 mph N/A   Clear
1:15 PM 73.4 °F 50.0 °F 44% 30.08 in 10.0 mi South 10.4 mph - N/A   Clear
1:35 PM 75.2 °F 50.0 °F 41% 30.07 in 10.0 mi SSE 9.2 mph - N/A   Clear
1:55 PM 75.2 °F 48.2 °F 38% 30.06 in 10.0 mi South 10.4 mph 16.1 mph N/A   Clear
2:15 PM 77.0 °F 48.2 °F 36% 30.06 in 10.0 mi South 9.2 mph - N/A   Clear
2:35 PM 77.0 °F 46.4 °F 34% 30.05 in 10.0 mi South 9.2 mph - N/A   Clear
2:55 PM 77.0 °F 46.4 °F 34% 30.05 in 10.0 mi South 10.4 mph - N/A   Clear
3:15 PM 77.0 °F 46.4 °F 34% 30.04 in 10.0 mi SSE 8.1 mph - N/A   Clear
3:35 PM 77.0 °F 44.6 °F 32% 30.03 in 10.0 mi South 10.4 mph - N/A   Clear
3:55 PM 77.0 °F 46.4 °F 34% 30.03 in 10.0 mi SSW 9.2 mph - N/A   Clear
4:15 PM 78.8 °F 44.6 °F 30% 30.03 in 10.0 mi South 10.4 mph - N/A   Clear
4:35 PM 77.0 °F 44.6 °F 32% 30.03 in 10.0 mi SSE 11.5 mph - N/A   Clear
4:55 PM 77.0 °F 44.6 °F 32% 30.02 in 10.0 mi SSE 8.1 mph - N/A   Clear
5:15 PM 77.0 °F 44.6 °F 32% 30.02 in 10.0 mi South 9.2 mph - N/A   Clear
5:35 PM 73.4 °F 44.6 °F 36% 30.02 in 10.0 mi South 9.2 mph - N/A   Clear
5:55 PM 73.4 °F 46.4 °F 38% 30.02 in 10.0 mi South 9.2 mph - N/A   Clear
6:15 PM 73.4 °F 46.4 °F 38% 30.02 in 10.0 mi South 8.1 mph - N/A   Clear
6:35 PM 71.6 °F 46.4 °F 41% 30.02 in 10.0 mi SSE 8.1 mph - N/A   Clear
6:55 PM 69.8 °F 48.2 °F 46% 30.02 in 10.0 mi South 5.8 mph - N/A   Clear
7:15 PM 68.0 °F 48.2 °F 49% 30.02 in 10.0 mi South 6.9 mph - N/A   Clear
7:35 PM 66.2 °F 48.2 °F 52% 30.02 in 10.0 mi South 6.9 mph - N/A   Clear
7:55 PM 64.4 °F 48.2 °F 56% 30.03 in 10.0 mi South 5.8 mph - N/A   Clear
8:15 PM 64.4 °F 50.0 °F 59% 30.03 in 10.0 mi South 5.8 mph - N/A   Clear
8:35 PM 62.6 °F 50.0 °F 63% 30.03 in 10.0 mi SSE 5.8 mph - N/A   Clear
8:55 PM 62.6 °F 50.0 °F 63% 30.03 in 10.0 mi SSE 8.1 mph - N/A   Clear
9:15 PM 62.6 °F 50.0 °F 63% 30.03 in 10.0 mi SE 5.8 mph - N/A   Clear
9:35 PM 64.4 °F 50.0 °F 59% 30.03 in 10.0 mi SE 6.9 mph - N/A   Clear
9:55 PM 64.4 °F 50.0 °F 59% 30.03 in 10.0 mi SE 5.8 mph - N/A   Clear
10:15 PM 62.6 °F 50.0 °F 63% 30.04 in 10.0 mi SE 4.6 mph - N/A   Clear
10:35 PM 62.6 °F 50.0 °F 63% 30.04 in 10.0 mi ESE 4.6 mph - N/A   Clear
10:55 PM 62.6 °F 50.0 °F 63% 30.04 in 10.0 mi ESE 5.8 mph - N/A   Clear
11:15 PM 62.6 °F 50.0 °F 63% 30.04 in 10.0 mi ESE 5.8 mph - N/A   Clear
11:35 PM 62.6 °F 51.8 °F 68% 30.04 in 10.0 mi SE 8.1 mph - N/A   Clear